TimeEDT,TemperatureF,Dew PointF,Humidity,Sea Level PressureIn,VisibilityMPH,Wind Direction,Wind SpeedMPH,Gust SpeedMPH,PrecipitationIn,Events,Conditions,WindDirDegrees,DateUTC
12:53 AM,6.8,6.8,100,-9999,0.1,West,26.5,-,N/A,Fog-Snow,Light Snow,280,2013-03-20 04:53:00
1:52 AM,5.0,5.0,100,-9999,0.0,WNW,39.1,-,N/A,Fog-Snow,Light Snow,300,2013-03-20 05:52:00
2:56 AM,3.2,3.2,100,-9999,0.0,NW,43.7,-,N/A,Fog-Snow,Light Snow,310,2013-03-20 06:56:00
3:55 AM,3.2,3.2,100,-9999,0.0,NW,49.5,-,N/A,Fog-Snow,Light Snow,320,2013-03-20 07:55:00
4:51 AM,3.2,3.2,100,-9999,0.0,NW,54.1,59.8,N/A,Fog-Snow,Light Snow,320,2013-03-20 08:51:00
5:56 AM,1.4,1.4,100,-9999,0.0,NW,59.8,65.6,N/A,Fog-Snow,Light Snow,310,2013-03-20 09:56:00
6:57 AM,1.4,1.4,100,-9999,0.0,WNW,55.2,61.0,N/A,Fog-Snow,Light Snow,300,2013-03-20 10:57:00
7:49 AM,1.4,1.4,100,-9999,0.0,NW,57.5,64.4,N/A,Fog-Snow,Light Snow,310,2013-03-20 11:49:00
8:47 AM,1.4,1.4,100,-9999,0.0,WNW,48.3,56.4,N/A,Fog-Snow,Light Snow,300,2013-03-20 12:47:00
9:47 AM,1.4,1.4,100,-9999,0.0,WNW,46.0,-,N/A,Fog-Snow,Light Snow,300,2013-03-20 13:47:00
10:49 AM,5.0,5.0,100,-9999,0.0,WNW,54.1,58.7,N/A,Fog-Snow,Light Snow,300,2013-03-20 14:49:00
11:54 AM,5.0,5.0,100,-9999,0.0,WNW,46.0,52.9,N/A,Fog-Snow,Light Snow,300,2013-03-20 15:54:00
12:58 PM,6.8,6.8,100,-9999,0.0,WNW,50.6,-,N/A,Fog-Snow,Light Snow,300,2013-03-20 16:58:00
1:49 PM,5.0,5.0,100,-9999,0.0,WNW,44.9,51.8,N/A,Fog-Snow,Light Snow,300,2013-03-20 17:49:00
2:51 PM,5.0,5.0,100,-9999,0.0,WNW,67.9,77.1,N/A,Fog-Snow,Light Snow,300,2013-03-20 18:51:00
2:59 PM,5.0,5.0,100,-9999,0.0,WNW,67.9,77.1,N/A,Fog-Snow,Light Snow,300,2013-03-20 18:59:00
4:54 PM,5.0,5.0,100,-9999,0.0,WNW,67.9,-,N/A,Fog-Snow,Light Snow,300,2013-03-20 20:54:00
5:48 PM,6.8,6.8,100,-9999,0.0,WNW,61.0,-,N/A,Fog-Snow,Light Snow,290,2013-03-20 21:48:00
6:51 PM,6.8,6.8,100,-9999,0.0,WNW,79.4,90.9,N/A,Fog-Snow,Light Snow,300,2013-03-20 22:51:00
7:55 PM,6.8,6.8,100,-9999,0.0,WNW,64.4,74.8,N/A,Fog-Snow,Light Snow,290,2013-03-20 23:55:00
8:53 PM,5.0,5.0,100,-9999,0.0,WNW,69.0,79.4,N/A,Fog-Snow,Light Snow,290,2013-03-21 00:53:00
9:59 PM,3.2,3.2,100,-9999,0.0,WNW,65.6,71.3,N/A,Fog-Snow,Light Snow,290,2013-03-21 01:59:00
10:55 PM,1.4,1.4,100,-9999,0.0,WNW,59.8,-,N/A,Fog-Snow,Light Freezing Fog,290,2013-03-21 02:55:00
11:50 PM,1.4,1.4,100,-9999,0.0,WNW,59.8,-,N/A,Fog-Snow,Light Freezing Fog,290,2013-03-21 03:50:00